Regional Weather Roundup
Issued by NWS State College, PA

Home | Current Version | Previous Version | Graphics & Text | Print | Product List | Glossary Off
Versions: 1 2 3 4 5 6 7 8 9 10 11 12 13 14 15 16 17 18 19 20 21 22 23 24 25 26 27 28 29 30 31 32 33 34 35 36 37 38 39 40 41 42 43 44 45 46 47 48 49 50

000
ASUS41 KCTP 210410
RWRCTP

REGIONAL WEATHER ROUNDUP
NATIONAL WEATHER SERVICE STATE COLLEGE PA
1200 AM EDT THU AUG 21 2014

Note: "fair" indicates few or no clouds below 12,000 feet with no
significant weather and/or obstructions to visibility.

* = STATION THAT DOES NOT REPORT PRECIPITATION /E.G. RAIN...SNOW...ETC/
    THUNDER OR FOG.

PAZ002>004-007>009-013>016-020>023-029>032-210500-
WESTERN PENNSYLVANIA

CITY           SKY/WX    TMP DP  RH WIND       PRES   REMARKS
ERIE           PTCLDY    70  64  81 S7        29.96R
MEADVILLE      CLEAR     67  64  90 S3        30.00S
FRANKLIN*      CLOUDY    66  63  88 S5        30.02S
NEW CASTLE     NOT AVBL
BEAVER COUNTY  NOT AVBL
BUTLER*        CLEAR     66  64  94 CALM      30.03S
PITTSBURGH INT PTCLDY    67  66  97 CALM      30.01S
PITTSBURGH     PTCLDY    69  63  81 S8        30.01S
INDIANA*       MOCLDY    70  66  88 CALM      30.05S
LATROBE        MOCLDY    70  70 100 S6        30.02S
WASHINGTON CO* CLOUDY    64  63  94 CALM      30.02F VSB 1/4
$$

PAZ004>006-010>012-017>019-024>028-033>037-041-042-045-046-049>053-210500-
CENTRAL PENNSYLVANIA

CITY           SKY/WX    TMP DP  RH WIND       PRES   REMARKS
BRADFORD       MOCLDY    65  64  97 S6        30.03R FOG
DUBOIS         MOCLDY    64  63  96 CALM      30.02S
CLEARFIELD     TSTM      65  64  97 S7        30.04R FOG
JOHNSTOWN      MOCLDY    67  63  87 SW7       30.06S
ALTOONA        PTCLDY    68  67  96 CALM      30.03F
STATE COLLEGE  MOCLDY    69  67  95 SW5       30.01S
WILLIAMSPORT   LGT RAIN  71  66  84 CALM      29.98F
SELINSGROVE    PTCLDY    66  65  96 CALM      30.02R FOG
FT INDIANTOWN  FOG       66  66 100 N2        30.03R VSB 1/2
CAPITAL CITY   CLOUDY    71  65  81 SE5       30.02R
HARRISBURG     MOCLDY    73  66  78 S5        30.01R
YORK           MOCLDY    64  63  96 CALM      30.03R
$$

PAZ038>040-043-044-047-048-054-055-060>062-067>071-210500-
EASTERN PENNSYLVANIA

CITY           SKY/WX    TMP DP  RH WIND       PRES   REMARKS
SCRANTON       CLOUDY    74  64  71 SW7       30.02R
MOUNT POCONO   CLOUDY    67  62  84 S6        30.07R
ALLENTOWN      CLOUDY    73  66  78 S6        30.03R
QUAKERTOWN*    MOCLDY    72  64  78 CALM      30.05R
READING        CLOUDY    74  62  66 S5        30.02R
LANCASTER      CLOUDY    72  62  71 S6        30.03R
COATESVILLE    PTCLDY    66  64  94 CALM      30.06R
POTTSTOWN      CLOUDY    72  63  73 S3        30.05R
BLUE BELL      MOCLDY    73  63  68 S3        30.04R
DOYLESTOWN     CLOUDY    70  62  76 S3        30.04R
WILLOW GROVE   NOT AVBL
NORTH PHILA    CLOUDY    73  62  68 CALM      30.06R
PHILADELPHIA   CLOUDY    73  63  70 S5        30.04R
$$



USA.gov is the U.S. government's official web portal to all federal, state and local government web resources and services.